Starlink 2166

operational
NORAD ID: 48558 Int'l Des: 2021-041 Owner: SPXS Country: US Constellation: starlink
LEOCIRCULARSTARLINK_TYPE

About Starlink 2166

Description loading...

Live Position

Loading 3D Globe...

Upcoming Passes

Altitude History

Altitude vs Time

uPlot chart will show altitude changes over time

Two-Line Element Set

1 48558U 21041F 25349.70931253 .00000618 00000-0 60389-4 0 9996
2 48558 53.0548 148.6204 0000805 92.8651 267.2430 15.06392867251689
Epoch: Dec 15, 2025 • Age: 34 hours

Current Status

Altitude 549.3 km
Velocity 7.59 km/s
Sub-Earth Point 34.61°N, 159.3°E
Launch Date May 15, 2021
Age 4.5 years
Type internet

Technical Details

Classification Payload
Mass 260.00 kg
Dry Mass 248.00 kg
Total Mass 260.00 kg
Length 0.20 m
Diameter 2.80 m
Span 9.00 m
Shape Box + pan
Manufacturer SPXS
Bus Type Starlink
Phase Status In Orbit
Owner/State SPXS/US

Large Constellations

Loading constellations...